Yatton Keynell, United Kingdom

4:43 AM BST on April 19, 2019 (GMT +0100)
Yatton Keynell

Weather History for 03740 - August, 2003

Change the Weather History Date:

Monday, August 4, 2003

  Actual Average Record
Temperature  
Mean Temperature 72 °F -  
Max Temperature 86 °F 67 °F - ()
Min Temperature 59 °F 52 °F - ()
Cooling Degree Days 8    
Growing Degree Days 22 (Base 50)    
Moisture  
Dew Point 58 °F    
Average Humidity 59    
Maximum Humidity 77    
Minimum Humidity 37    
Precipitation  
Precipitation 0.00 in 0.08 in - ()
Sea Level Pressure  
Sea Level Pressure 30.21 in    
Wind  
Wind Speed 3 mph ()    
Max Wind Speed 14 mph    
Max Gust Speed -    
Visibility 6.2 miles    
Events      
T = Trace of Precipitation, MM = Missing Value Source: Averaged Metar Reports

Daily Weather History Graph

Daily Weather History Graph

Search for Another Location

Airport or City:

Astronomy

Aug. 04, 2003 Rise Set
Actual Time 5:35 AM BST 8:51 PM BST
Civil Twilight 4:55 AM BST 9:31 PM BST
Nautical Twilight 4:02 AM BST 10:24 PM BST
Astronomical Twilight 2:49 AM BST 11:34 PM BST
Moon 1:07 PM BST (8/4) 11:32 PM BST (8/4)
Length of Visible Light 16h 36m
Length of Day
15h 16m
Waxing Crescent, 40% of the Moon is Illuminated
Aug 4
Waxing Crescent
Aug 5
First Quarter
Aug 12
Full
Aug 20
Last Quarter
Aug 27
New

Hourly Weather History & Observations

Time (BST) Temp. Heat Index Dew Point Humidity Pressure Visibility Wind Dir Wind Speed Gust Speed Precip Events Conditions
12:50 AM 64.4 °F - 50.0 °F 59% 30.21 in - Calm Calm - N/A   Clear
1:50 AM 62.6 °F - 50.0 °F 63% 30.21 in - North 1.2 mph - N/A   Clear
2:50 AM 62.6 °F - 50.0 °F 63% 30.21 in - NE 1.2 mph - N/A   Clear
3:50 AM 60.8 °F - 50.0 °F 68% 30.21 in - Calm Calm - N/A   Clear
4:50 AM 60.8 °F - 50.0 °F 68% 30.21 in - SSW 2.3 mph - N/A   Clear
5:50 AM 59.0 °F - 50.0 °F 72% 30.21 in - NNW 3.5 mph - N/A   Clear
6:50 AM 59.0 °F - 51.8 °F 77% 30.24 in - North 3.5 mph - N/A   Clear
7:50 AM 62.6 °F - 51.8 °F 68% 30.24 in - NNE 4.6 mph - N/A   Clear
8:50 AM 66.2 °F - 53.6 °F 64% 30.24 in - NE 4.6 mph - N/A   Clear
9:50 AM 71.6 °F - 57.2 °F 60% 30.24 in - NE 5.8 mph - N/A   Clear
10:50 AM 75.2 °F - 60.8 °F 61% 30.21 in - ENE 8.1 mph - N/A   Clear
11:50 AM 80.6 °F 80.8 °F 57.2 °F 45% 30.21 in - ENE 8.1 mph - N/A   Clear
12:50 PM 82.4 °F 81.4 °F 53.6 °F 37% 30.21 in - ENE 8.1 mph - N/A   Clear
1:50 PM 84.2 °F 83.8 °F 59.0 °F 42% 30.21 in - SSE 5.8 mph - N/A   Clear
2:50 PM 86.0 °F 87.3 °F 64.4 °F 48% 30.21 in - SE 5.8 mph - N/A   Clear
3:50 PM 86.0 °F 87.3 °F 64.4 °F 48% 30.21 in 6.2 mi ESE 4.6 mph - N/A   Scattered Clouds
4:50 PM 86.0 °F 86.6 °F 62.6 °F 45% 30.18 in - SE 8.1 mph - N/A   Clear
5:50 PM 84.2 °F 85.6 °F 64.4 °F 51% 30.18 in - SE 6.9 mph - N/A   Clear
6:50 PM 84.2 °F 85.0 °F 62.6 °F 48% 30.18 in - SSE 5.8 mph - N/A   Clear
7:50 PM 80.6 °F 82.3 °F 64.4 °F 58% 30.18 in - South 3.5 mph - N/A   Clear
8:50 PM 78.8 °F - 64.4 °F 61% 30.18 in - ESE 3.5 mph - N/A   Clear
9:50 PM 75.2 °F - 64.4 °F 69% 30.21 in - ESE 5.8 mph - N/A   Clear
10:50 PM 75.2 °F - 62.6 °F 65% 30.21 in - ENE 8.1 mph - N/A   Clear
11:50 PM 73.4 °F - 62.6 °F 69% 30.21 in - East 13.8 mph - N/A   Clear